Weather History for Viroqua, WI

Change the Weather History Date:

Monday, October 15, 2012

  Actual Average (KLSE) Record (KLSE)
Temperature  
Mean Temperature 45 °F 50 °F  
Max Temperature 57 °F 60 °F 85 °F (1958)
Min Temperature 33 °F 41 °F 24 °F (1937)
Degree Days  
Heating Degree Days 20 15  
Month to date heating degree days 184  
Since 1 July heating degree days 344  
Cooling Degree Days 0 0  
Month to date cooling degree days 7  
Year to date cooling degree days 781  
Moisture  
Dew Point 37 °F    
Average Humidity 74    
Maximum Humidity 100    
Minimum Humidity 44    
Precipitation  
Precipitation 0.00 in 0.07 in 1.03 in (1911)
Month to date precipitation 1.15  
Year to date precipitation 28.67  
Snow  
Snow 0.00 in 0.00 in T in (2009)
Month to date snowfall 0.0  
Since 1 July snowfall 0.0  
Snow Depth -    
Sea Level Pressure  
Sea Level Pressure 29.90 in    
Wind  
Wind Speed 5 mph (West)    
Max Wind Speed 9 mph    
Max Gust Speed -    
Visibility 10 miles    
Events      
T = Trace of Precipitation, MM = Missing Value Source: NWS Daily Summary

Daily Weather History Graph

Daily Weather History Graph

Search for Another Location

Airport:

Trip Planner

Search our weather history database for the weather conditions in past years. The results will help you decide how hot, cold, wet, or windy it might be!

Date:

Astronomy

Oct. 15, 2012 Rise Set
Actual Time 7:18 AM CDT 6:19 PM CDT
Civil Twilight 6:49 AM CDT 6:48 PM CDT
Nautical Twilight 6:16 AM CDT 7:21 PM CDT
Astronomical Twilight 5:43 AM CDT 7:54 PM CDT
Moon 7:30 AM CDT (10/15) 6:16 PM CDT (10/15)
Length of Visible Light 11h 58m
Length of Day
11h 01m
New Moon, 0% of the Moon is Illuminated
Oct 15
New Moon
Oct 21
First Quarter
Oct 29
Full
Nov 6
Last Quarter
Nov 13
New

Hourly Weather History & Observations

Time (CDT) Temp. Windchill Dew Point Humidity Pressure Visibility Wind Dir Wind Speed Gust Speed Precip Events Conditions
12:15 AM 37.4 °F 32.8 °F 37.4 °F 100% 29.83 in 10.0 mi NW 5.8 mph - N/A   Clear
12:35 AM 37.4 °F 32.8 °F 37.4 °F 100% 29.83 in 10.0 mi WNW 5.8 mph - N/A   Clear
12:55 AM 37.4 °F 33.8 °F 37.4 °F 100% 29.83 in 10.0 mi WNW 4.6 mph - N/A   Clear
1:15 AM 37.4 °F 33.8 °F 37.4 °F 100% 29.84 in 10.0 mi WNW 4.6 mph - N/A   Clear
1:35 AM 37.4 °F 33.8 °F 37.4 °F 100% 29.84 in 10.0 mi WNW 4.6 mph - N/A   Clear
1:55 AM 37.4 °F 33.8 °F 37.4 °F 100% 29.85 in 10.0 mi West 4.6 mph - N/A   Clear
2:15 AM 35.6 °F 31.7 °F 35.6 °F 100% 29.85 in 10.0 mi West 4.6 mph - N/A   Clear
2:35 AM 35.6 °F 32.8 °F 35.6 °F 100% 29.85 in 10.0 mi West 3.5 mph - N/A   Clear
2:55 AM 35.6 °F 31.7 °F 35.6 °F 100% 29.85 in 10.0 mi West 4.6 mph - N/A   Clear
3:15 AM 35.6 °F - 35.6 °F 100% 29.85 in 10.0 mi Calm Calm - N/A   Clear
3:35 AM 35.6 °F 31.7 °F 35.6 °F 100% 29.85 in 10.0 mi WNW 4.6 mph - N/A   Clear
3:55 AM 35.6 °F 32.8 °F 35.6 °F 100% 29.86 in 10.0 mi WNW 3.5 mph - N/A   Clear
4:15 AM 35.6 °F 31.7 °F 35.6 °F 100% 29.86 in 10.0 mi West 4.6 mph - N/A   Clear
4:55 AM 33.8 °F 30.8 °F 33.8 °F 100% 29.87 in 10.0 mi West 3.5 mph - N/A   Clear
5:15 AM 33.8 °F 29.6 °F 33.8 °F 100% 29.87 in 10.0 mi West 4.6 mph - N/A   Clear
5:35 AM 35.6 °F 31.7 °F 35.6 °F 100% 29.88 in 10.0 mi West 4.6 mph - N/A   Clear
5:55 AM 33.8 °F 30.8 °F 33.8 °F 100% 29.89 in 10.0 mi WNW 3.5 mph - N/A   Clear
6:15 AM 33.8 °F 30.8 °F 33.8 °F 100% 29.89 in 10.0 mi WNW 3.5 mph - N/A   Clear
6:35 AM 35.6 °F 32.8 °F 35.6 °F 100% 29.90 in 10.0 mi West 3.5 mph - N/A   Clear
7:15 AM 33.8 °F - 33.8 °F 100% 29.90 in 10.0 mi Calm Calm - N/A   Clear
7:35 AM 33.8 °F 30.8 °F 33.8 °F 100% 29.90 in 10.0 mi WNW 3.5 mph - N/A   Clear
7:55 AM 33.8 °F 30.8 °F 33.8 °F 100% 29.92 in 10.0 mi WNW 3.5 mph - N/A   Clear
8:15 AM 35.6 °F - 35.6 °F 100% 29.92 in 10.0 mi Calm Calm - N/A   Clear
8:35 AM 37.4 °F 34.9 °F 37.4 °F 100% 29.92 in 10.0 mi WNW 3.5 mph - N/A   Clear
8:55 AM 39.2 °F 37.0 °F 37.4 °F 93% 29.92 in 10.0 mi WNW 3.5 mph - N/A   Clear
9:15 AM 41.0 °F 39.0 °F 37.4 °F 87% 29.93 in 10.0 mi NW 3.5 mph - N/A   Clear
9:35 AM 42.8 °F 41.1 °F 39.2 °F 87% 29.93 in 10.0 mi WNW 3.5 mph - N/A   Clear
9:55 AM 44.6 °F 42.2 °F 39.2 °F 81% 29.94 in 10.0 mi WNW 4.6 mph - N/A   Clear
10:15 AM 46.4 °F 44.3 °F 39.2 °F 76% 29.95 in 10.0 mi WNW 4.6 mph - N/A   Clear
10:35 AM 48.2 °F - 37.4 °F 66% 29.95 in 10.0 mi NW 5.8 mph - N/A   Clear
10:55 AM 50.0 °F - 37.4 °F 62% 29.95 in 10.0 mi NW 5.8 mph - N/A   Clear
11:15 AM 50.0 °F - 35.6 °F 58% 29.95 in 10.0 mi NNW 4.6 mph - N/A   Clear
11:35 AM 51.8 °F - 35.6 °F 54% 29.94 in 10.0 mi North 4.6 mph - N/A   Clear
11:55 AM 51.8 °F - 33.8 °F 50% 29.95 in 10.0 mi NW 4.6 mph - N/A   Clear
12:15 PM 53.6 °F - 35.6 °F 51% 29.96 in 10.0 mi WNW 6.9 mph - N/A   Clear
12:35 PM 53.6 °F - 35.6 °F 51% 29.95 in 10.0 mi WNW 9.2 mph - N/A   Clear
12:55 PM 53.6 °F - 35.6 °F 51% 29.95 in 10.0 mi NW 6.9 mph - N/A   Clear
1:15 PM 55.4 °F - 35.6 °F 47% 29.95 in 10.0 mi West 4.6 mph - N/A   Clear
1:35 PM 55.4 °F - 35.6 °F 47% 29.94 in 10.0 mi NNW 9.2 mph - N/A   Clear
1:55 PM 55.4 °F - 35.6 °F 47% 29.93 in 10.0 mi NNW 5.8 mph - N/A   Clear
2:15 PM 55.4 °F - 35.6 °F 47% 29.93 in 10.0 mi NW 8.1 mph - N/A   Clear
2:35 PM 57.2 °F - 35.6 °F 44% 29.92 in 10.0 mi WNW 6.9 mph - N/A   Clear
2:55 PM 55.4 °F - 35.6 °F 47% 29.92 in 10.0 mi WNW 6.9 mph - N/A   Clear
3:15 PM 55.4 °F - 35.6 °F 47% 29.92 in 10.0 mi NW 5.8 mph - N/A   Clear
3:35 PM 55.4 °F - 37.4 °F 51% 29.91 in 10.0 mi NW 6.9 mph - N/A   Clear
3:55 PM 55.4 °F - 37.4 °F 51% 29.91 in 10.0 mi West 3.5 mph - N/A   Clear
4:15 PM 55.4 °F - 37.4 °F 51% 29.91 in 10.0 mi West 3.5 mph - N/A   Clear
4:35 PM 57.2 °F - 35.6 °F 44% 29.91 in 10.0 mi Calm Calm - N/A   Clear
4:55 PM 57.2 °F - 37.4 °F 48% 29.91 in 10.0 mi SW 4.6 mph - N/A   Clear
5:15 PM 55.4 °F - 37.4 °F 51% 29.91 in 10.0 mi SW 3.5 mph - N/A   Clear
5:35 PM 55.4 °F - 37.4 °F 51% 29.91 in 10.0 mi WSW 4.6 mph - N/A   Clear
5:55 PM 53.6 °F - 37.4 °F 54% 29.90 in 10.0 mi West 3.5 mph - N/A   Clear
6:15 PM 51.8 °F - 37.4 °F 58% 29.90 in 10.0 mi Calm Calm - N/A   Clear
6:35 PM 51.8 °F - 37.4 °F 58% 29.90 in 10.0 mi Calm Calm - N/A   Clear
6:55 PM 50.0 °F - 37.4 °F 62% 29.90 in 10.0 mi South 3.5 mph - N/A   Clear
7:15 PM 50.0 °F - 37.4 °F 62% 29.90 in 10.0 mi South 3.5 mph - N/A   Clear
7:35 PM 50.0 °F - 37.4 °F 62% 29.90 in 10.0 mi South 4.6 mph - N/A   Clear
7:55 PM 50.0 °F - 37.4 °F 62% 29.90 in 10.0 mi South 3.5 mph - N/A   Clear
8:15 PM 50.0 °F - 37.4 °F 62% 29.90 in 10.0 mi SSE 4.6 mph - N/A   Clear
8:35 PM 48.2 °F - 37.4 °F 66% 29.90 in 10.0 mi South 3.5 mph - N/A   Clear
8:55 PM 46.4 °F 43.5 °F 37.4 °F 71% 29.90 in 10.0 mi South 5.8 mph - N/A   Clear
9:15 PM 46.4 °F 43.5 °F 37.4 °F 71% 29.90 in 10.0 mi SSE 5.8 mph - N/A   Scattered Clouds
9:35 PM 48.2 °F - 37.4 °F 66% 29.89 in 10.0 mi SSE 5.8 mph - N/A   Overcast
9:55 PM 46.4 °F 42.9 °F 37.4 °F 71% 29.89 in 10.0 mi SSE 6.9 mph - N/A   Scattered Clouds
10:15 PM 46.4 °F 44.3 °F 37.4 °F 71% 29.89 in 10.0 mi South 4.6 mph - N/A   Clear
10:35 PM 46.4 °F 43.5 °F 39.2 °F 76% 29.89 in 10.0 mi South 5.8 mph - N/A   Clear
10:55 PM 48.2 °F - 39.2 °F 71% 29.88 in 10.0 mi South 5.8 mph - N/A   Clear
11:15 PM 48.2 °F - 39.2 °F 71% 29.88 in 10.0 mi South 5.8 mph - N/A   Clear
11:35 PM 50.0 °F - 39.2 °F 66% 29.88 in 10.0 mi South 6.9 mph - N/A   Scattered Clouds
11:55 PM 50.0 °F - 39.2 °F 66% 29.87 in 10.0 mi South 6.9 mph - N/A   Clear